When you browse on this site, cookies collect data to enhance your experience and personalize the content and advertising you see.
Visit our Privacy Policy to learn more. By continuing to use the site, you agree to this use of cookies and data.
  • In Romania
  • List of Countries
  • For 7 days
  • Water Temperature
  • Satellite Maps
  • Weather Map
  • Weather Widgets
  • user-avatar
    Login

    Hourly Weather Batina

    Today, 22 March, Friday

    Time Temperature Precipitation Wind Pressure Humidity
    00:00 +5°C° 0 mm 2 mps 668 mmHg 94%
    01:00 +5°C° 0.3 mm 2 mps 668 mmHg 94%
    02:00 +5°C° 0.3 mm 2 mps 668 mmHg 94%
    03:00 +6°C° 0.3 mm 1 mps 668 mmHg 94%
    04:00 +6°C° 1.1 mm 1 mps 668 mmHg 93%
    05:00 +6°C° 1.1 mm 1 mps 668 mmHg 92%
    06:00 +5°C° 0 mm 1 mps 668 mmHg 90%
    07:00 +5°C° 0.1 mm 2 mps 669 mmHg 85%
    08:00 +6°C° 0.1 mm 2 mps 669 mmHg 80%
    09:00 +7°C° 0.1 mm 2 mps 670 mmHg 74%
    10:00 +8°C° 0 mm 2 mps 670 mmHg 68%
    11:00 +8°C° 0 mm 2 mps 670 mmHg 62%
    12:00 +10°C° 0 mm 3 mps 670 mmHg 51%
    13:00 +10°C° 0 mm 4 mps 670 mmHg 50%
    14:00 +10°C° 0 mm 4 mps 670 mmHg 49%
    15:00 +11°C° 0 mm 4 mps 670 mmHg 47%
    16:00 +10°C° 0 mm 4 mps 670 mmHg 53%
    17:00 +8°C° 0 mm 4 mps 670 mmHg 58%
    18:00 +7°C° 0 mm 4 mps 670 mmHg 63%
    19:00 +7°C° 0 mm 3 mps 670 mmHg 71%
    20:00 +5°C° 0 mm 3 mps 670 mmHg 79%
    21:00 +6°C° 0 mm 2 mps 671 mmHg 87%
    22:00 +6°C° 0 mm 2 mps 671 mmHg 88%
    23:00 +6°C° 0 mm 2 mps 671 mmHg 88%

    Tomorrow, 23 March, Saturday

    Time Temperature Precipitation Wind Pressure Humidity
    00:00 +6°C° 0 mm 2 mps 671 mmHg 88%
    01:00 +6°C° 0.1 mm 2 mps 670 mmHg 89%
    02:00 +5°C° 0.1 mm 2 mps 670 mmHg 89%
    03:00 +5°C° 0.1 mm 2 mps 670 mmHg 89%
    04:00 +5°C° 0.5 mm 2 mps 670 mmHg 90%
    05:00 +5°C° 0.5 mm 2 mps 670 mmHg 91%
    06:00 +4°C° 0.5 mm 3 mps 671 mmHg 91%
    07:00 +5°C° 0.3 mm 3 mps 671 mmHg 91%
    08:00 +5°C° 0.3 mm 3 mps 671 mmHg 90%
    09:00 +5°C° 0.3 mm 3 mps 672 mmHg 89%
    10:00 +7°C° 0.1 mm 3 mps 672 mmHg 85%
    11:00 +8°C° 0.1 mm 3 mps 672 mmHg 81%
    12:00 +8°C° 0.1 mm 4 mps 673 mmHg 77%
    13:00 +8°C° 0.3 mm 4 mps 672 mmHg 80%
    14:00 +8°C° 0.3 mm 4 mps 672 mmHg 83%
    15:00 +7°C° 0.3 mm 4 mps 672 mmHg 86%
    16:00 +8°C° 0.1 mm 3 mps 672 mmHg 86%
    17:00 +8°C° 0.1 mm 3 mps 672 mmHg 87%
    18:00 +8°C° 0.1 mm 3 mps 672 mmHg 87%
    19:00 +8°C° 0.1 mm 3 mps 673 mmHg 89%
    20:00 +8°C° 0.1 mm 3 mps 673 mmHg 91%
    21:00 +7°C° 0.1 mm 2 mps 674 mmHg 92%
    22:00 +7°C° 0 mm 2 mps 674 mmHg 93%
    23:00 +7°C° 0 mm 2 mps 673 mmHg 94%

    Day after tomorrow, 24 March, Sunday

    Time Temperature Precipitation Wind Pressure Humidity
    00:00 +6°C° 0 mm 2 mps 673 mmHg 95%
    01:00 +7°C° 0 mm 1 mps 673 mmHg 95%
    02:00 +7°C° 0 mm 1 mps 673 mmHg 95%
    03:00 +6°C° 0 mm 1 mps 673 mmHg 95%
    04:00 +5°C° 0 mm 0 mps 673 mmHg 94%
    05:00 +6°C° 0 mm 0 mps 673 mmHg 93%
    06:00 +6°C° 0 mm 0 mps 673 mmHg 93%
    07:00 +7°C° 0 mm 0 mps 674 mmHg 86%
    08:00 +8°C° 0 mm 0 mps 675 mmHg 80%
    09:00 +10°C° 0 mm 1 mps 675 mmHg 73%
    10:00 +11°C° 0.1 mm 1 mps 675 mmHg 70%
    11:00 +12°C° 0.1 mm 1 mps 675 mmHg 66%
    12:00 +13°C° 0.1 mm 1 mps 675 mmHg 62%
    13:00 +13°C° 0.2 mm 1 mps 675 mmHg 62%
    14:00 +13°C° 0.2 mm 2 mps 674 mmHg 61%
    15:00 +13°C° 0.2 mm 2 mps 674 mmHg 61%
    16:00 +13°C° 0.1 mm 2 mps 674 mmHg 63%
    17:00 +12°C° 0.1 mm 2 mps 674 mmHg 66%
    18:00 +10°C° 0.1 mm 2 mps 673 mmHg 68%
    19:00 +10°C° 0 mm 2 mps 674 mmHg 69%
    20:00 +9°C° 0 mm 2 mps 674 mmHg 69%
    21:00 +8°C° 0 mm 2 mps 674 mmHg 69%
    22:00 +8°C° 0 mm 2 mps 674 mmHg 68%
    23:00 +8°C° 0 mm 2 mps 674 mmHg 67%

    25 March, Monday

    Time Temperature Precipitation Wind Pressure Humidity
    00:00 +8°C° 0 mm 2 mps 674 mmHg 66%
    01:00 +8°C° 0 mm 2 mps 673 mmHg 67%
    02:00 +7°C° 0 mm 2 mps 673 mmHg 68%
    03:00 +6°C° 0 mm 2 mps 673 mmHg 69%
    04:00 +6°C° 0 mm 2 mps 672 mmHg 70%
    05:00 +6°C° 0 mm 2 mps 672 mmHg 70%
    06:00 +6°C° 0 mm 2 mps 672 mmHg 71%
    07:00 +8°C° 0 mm 2 mps 673 mmHg 62%
    08:00 +10°C° 0 mm 3 mps 674 mmHg 53%
    09:00 +12°C° 0 mm 3 mps 675 mmHg 45%
    10:00 +13°C° 0 mm 3 mps 674 mmHg 43%
    11:00 +14°C° 0 mm 3 mps 674 mmHg 41%
    12:00 +16°C° 0 mm 3 mps 674 mmHg 38%
    13:00 +16°C° 0 mm 3 mps 674 mmHg 38%
    14:00 +16°C° 0 mm 3 mps 673 mmHg 37%
    15:00 +17°C° 0 mm 4 mps 673 mmHg 37%
    16:00 +14°C° 0 mm 3 mps 673 mmHg 41%
    17:00 +13°C° 0 mm 3 mps 672 mmHg 46%
    18:00 +13°C° 0 mm 2 mps 672 mmHg 50%
    19:00 +12°C° 0 mm 2 mps 672 mmHg 56%
    20:00 +12°C° 0 mm 1 mps 672 mmHg 62%
    21:00 +10°C° 0 mm 0 mps 672 mmHg 67%
    22:00 +9°C° 0 mm 0 mps 672 mmHg 68%
    23:00 +9°C° 0 mm 0 mps 672 mmHg 68%

    26 March, Tuesday

    Time Temperature Precipitation Wind Pressure Humidity
    00:00 +10°C° 0 mm 1 mps 671 mmHg 68%
    01:00 +9°C° 0 mm 1 mps 671 mmHg 66%
    02:00 +9°C° 0 mm 1 mps 671 mmHg 63%
    03:00 +9°C° 0 mm 1 mps 671 mmHg 61%
    04:00 +9°C° 0 mm 1 mps 671 mmHg 62%
    05:00 +9°C° 0 mm 1 mps 671 mmHg 63%
    06:00 +9°C° 0 mm 1 mps 671 mmHg 63%
    07:00 +11°C° 0 mm 1 mps 672 mmHg 57%
    08:00 +13°C° 0 mm 1 mps 672 mmHg 50%
    09:00 +15°C° 0 mm 1 mps 673 mmHg 44%
    10:00 +16°C° 0 mm 2 mps 674 mmHg 42%
    11:00 +17°C° 0 mm 3 mps 674 mmHg 40%
    12:00 +18°C° 0 mm 3 mps 674 mmHg 39%
    13:00 +18°C° 0 mm 4 mps 674 mmHg 41%
    14:00 +18°C° 0 mm 4 mps 673 mmHg 42%
    15:00 +17°C° 0 mm 4 mps 673 mmHg 44%
    16:00 +15°C° 0 mm 4 mps 673 mmHg 52%
    17:00 +14°C° 0 mm 4 mps 673 mmHg 59%
    18:00 +13°C° 0 mm 3 mps 672 mmHg 67%
    19:00 +12°C° 0 mm 3 mps 673 mmHg 71%
    20:00 +11°C° 0 mm 3 mps 673 mmHg 76%
    21:00 +10°C° 0 mm 2 mps 673 mmHg 81%
    22:00 +9°C° 0 mm 2 mps 673 mmHg 82%
    23:00 +8°C° 0 mm 3 mps 673 mmHg 83%

    27 March, Wednesday

    Time Temperature Precipitation Wind Pressure Humidity
    00:00 +8°C° 0 mm 3 mps 673 mmHg 84%
    01:00 +7°C° 0 mm 3 mps 673 mmHg 81%
    02:00 +7°C° 0 mm 3 mps 673 mmHg 78%
    03:00 +6°C° 0 mm 2 mps 673 mmHg 76%
    04:00 +6°C° 0 mm 2 mps 673 mmHg 74%
    05:00 +6°C° 0 mm 2 mps 674 mmHg 72%
    06:00 +6°C° 0 mm 2 mps 674 mmHg 71%
    07:00 +8°C° 0 mm 2 mps 675 mmHg 64%
    08:00 +9°C° 0 mm 2 mps 675 mmHg 58%
    09:00 +12°C° 0 mm 2 mps 676 mmHg 52%
    10:00 +14°C° 0 mm 2 mps 676 mmHg 49%
    11:00 +15°C° 0 mm 2 mps 676 mmHg 45%
    12:00 +16°C° 0 mm 2 mps 677 mmHg 42%
    13:00 +16°C° 0 mm 2 mps 676 mmHg 41%
    14:00 +16°C° 0 mm 3 mps 676 mmHg 39%
    15:00 +17°C° 0 mm 3 mps 676 mmHg 38%
    16:00 +16°C° 0 mm 3 mps 675 mmHg 39%
    17:00 +14°C° 0 mm 3 mps 675 mmHg 40%
    18:00 +14°C° 0 mm 2 mps 675 mmHg 42%
    19:00 +13°C° 0 mm 2 mps 675 mmHg 44%
    20:00 +12°C° 0 mm 2 mps 675 mmHg 46%
    21:00 +12°C° 0 mm 2 mps 675 mmHg 48%
    22:00 +10°C° 0 mm 2 mps 675 mmHg 50%
    23:00 +11°C° 0 mm 1 mps 675 mmHg 51%
    Show more